Regional Weather Roundup
Issued by NWS Wilmington, NC

Home | Current Version | Previous Version | Text Only | Print | Product List | Glossary On
Versions: 1 2 3 4 5 6 7 8 9 10 11 12 13 14 15 16 17 18 19 20 21 22 23 24 25 26 27 28 29 30 31 32 33 34 35 36 37 38 39 40 41 42 43 44 45 46 47 48 49 50
000
ASUS42 KILM 302312
RWRILM
RWRILM
REGIONAL HOURLY WEATHER ROUNDUP
NATIONAL WEATHER SERVICE WILMINGTON NC
700 PM EDT MON MAR 30 2015

NOTE: "FAIR" INDICATES FEW OR NO CLOUDS BELOW 12,000 FEET WITH NO
SIGNIFICANT WEATHER AND/OR OBSTRUCTIONS TO VISIBILITY.

...............WFO WILMINGTON COUNTY WARNING AREA...............

......COASTAL NC AND SC COUNTIES......

CITY           SKY/WX    TMP DP  RH WIND       PRES   REMARKS
WILMINGTON     MOCLDY    64  45  49 NW12      29.98R
N MYRTLE BEACH PTCLDY    65  48  54 NW8       30.00R
MYRTLE BEACH   NOT AVBL

......INLAND NC AND SC COUNTIES.......

CITY           SKY/WX    TMP DP  RH WIND       PRES   REMARKS
LUMBERTON      CLEAR     63  49  60 SW7       29.98S
ELIZABETHTOWN  CLEAR     63  46  54 W5        29.98S
WHITEVILLE     CLEAR     64  47  54 W3        29.99S
FLORENCE       CLEAR     66  46  48 W9        30.00S
DARLINGTON     CLEAR     66  46  48 SW8       30.00F

....................REST OF NORTH CAROLINA......................

.........EASTERN NC.........

CITY           SKY/WX    TMP DP  RH WIND       PRES   REMARKS
CAPE HATTERAS  CLEAR     52  46  80 W6        29.96S
JACKSONVILLE   CLEAR     61  43  51 W5        29.98R
MOREHEAD CITY  CLEAR     56  50  80 SW9       29.97S
KENANSVILLE    CLEAR     61  43  51 SW6       29.98R
NEW BERN       CLEAR     59  45  59 W7        29.97F
ELIZABETH CITY CLEAR     52  45  77 SW9       29.93S

.........CENTRAL NC.........

CITY           SKY/WX    TMP DP  RH WIND       PRES   REMARKS
RALEIGH DURHAM PTCLDY    65  32  29 W8        29.94R
ROCKY MOUNT    CLEAR     60  46  59 S7        29.94R
ROANOKE RAPIDS NOT AVBL
FAYETTEVILLE   CLEAR     65  42  43 W10       29.96S
HOFFMAN        CLEAR     64  46  50 SW6       30.00S

.........WESTERN NC.........

CITY           SKY/WX    TMP DP  RH WIND       PRES   REMARKS
CHARLOTTE      PTCLDY    68  30  24 W7        29.97S
GREENSBORO     PTCLDY    64  27  24 NW15      29.96R
HICKORY        NOT AVBL
BOONE          NOT AVBL
ASHEVILLE      NOT AVBL

.....................REST OF SOUTH CAROLINA.....................

.........EASTERN SC.........

CITY           SKY/WX    TMP DP  RH WIND       PRES   REMARKS
CHARLESTON     PTCLDY    67  50  54 W9G17     30.04R
BEAUFORT MCAS  MOCLDY    67  53  61 W8        30.05S
HILTON HEAD    PTCLDY    70  55  60 W9G17     30.07S

.........CENTRAL SC.........

CITY           SKY/WX    TMP DP  RH WIND       PRES   REMARKS
COLUMBIA       PTCLDY    71  45  39 W9        30.00S
ORANGEBURG     PTCLDY    69  49  48 W8        30.02S
SUMTER SHAW    CLEAR     68  47  45 W8        29.99S

.........WESTERN SC.........

CITY           SKY/WX    TMP DP  RH WIND       PRES   REMARKS
GREENVILLE     NOT AVBL
ROCK HILL      CLEAR     68  40  35 W5        29.98S
ANDERSON       CLEAR     69  36  29 W15       30.01S
CLEMSON        NOT AVBL
GREENWOOD      CLEAR     69  36  29 W8        30.02S


...................COASTAL AND OFFSHORE REPORTS..................

................LOCAL PIERS AND NC RESERVE................


STATION/POSITION TIME  SKY/WX   TEMP    WIND        PRES    VSBY
                                AIR SEA DIR/SP/G
                 (UTC)          (F)     (DEG/KT/KT) (MB)    (MI)
JOHNY MRCER PIER 2200            65 58  290/ 13/ 18 1014.2R
NC RESRV MASNBRO 2145            67     260/  4     1014.0
OCEAN CREST PIER 2302            58 56  250/  9/  9 1015.1R
SPRINGMAID  PIER 2200            66 56  240/ 10/ 13 1015.7S


................COASTAL AND OFFSHORE BUOYS................


STATION/POSITION TIME  SKY/WX   TEMP    WIND        PRES    VSBY
                                AIR SEA DIR/SP/G
                 (UTC)          (F)     (DEG/KT/KT) (MB)    (MI)
DIMNDSHOAL 41025 NOT AVBL
CAPE LOOKOUT     2300            56     240/ 10/ 13 1014.5R
ONSLOW BAY 41036 NOT AVBL
5 WRITEBCH 41038 2200            59 56  240/ 14/ 16 1014.8R
MASONBORO  41110 2219               56                N/A
WVE H/P(F/S)=  4/ 6 WND WVE H/P(F/S)=  3/ 6

WILM HARBR 41108 2211               59                N/A
WVE H/P(F/S)=  6/ 7 WND WVE H/P(F/S)=  7/ 7

27WRITEBCH 41037 2200            58 64  250/ 19/ 23 1016.4F
FRYING PAN 41013 2250            63 64  250/ 19/ 21 1016.1R
WVE H/P(F/S)=  7/ 7 WND WVE H/P(F/S)=  7/ 7 SWL H/P/D(F/S/D)=  2/ 80/10

SUNST NRSH 41024 2208            59     240/  6/ 10   N/A
CAPRS NRSH 41029 NOT AVBL
EDISTO     41004 2250            65 67  250/ 23/ 25 1016.3S
WVE H/P(F/S)=  7/ 7 WND WVE H/P(F/S)=  7/ 7 SWL H/P/D(F/S/D)=  2/16



..........OFFSHORE BUOYS BEYOND 100 NM OFFSHORE...........
.....IN A TRIANGLE---HAT TO BERMUDA TO BAHAMAS TO HAT.....


STATION/POSITION TIME  SKY/WX   TEMP    WIND        PRES    VSBY
                                AIR SEA DIR/SP/G
                 (UTC)          (F)     (DEG/KT/KT) (MB)    (MI)
150E HAT   41001 NOT AVBL
W BERMUDA  41048 2250            61 68  240/ 14/ 17 1020.3R
WVE H/P(F/S)=  7/ 9 WND WVE H/P(F/S)=  3/ 6 SWL H/P/D(F/S/D)=  7/350/ 9

ATLANTIC S 41049 2250            67 74  360/ 17/ 21 1018.3R
WVE H/P(F/S)= 10/10 WND WVE H/P(F/S)=  7/ 6 SWL H/P/D(F/S/D)=  8/330/10

E BAHAMAS  41046 2250            72 78   50/ 16/ 19 1019.1S
WVE H/P(F/S)=  7/ 8 WND WVE H/P(F/S)=  5/ 6 SWL H/P/D(F/S/D)=  5/ 20/ 8

NE BAHAMAS 41047 2250            65 75  350/  6/ 10 1022.5R
WVE H/P(F/S)=  7/ 9 WND WVE H/P(F/S)=  2/ 4 SWL H/P/D(F/S/D)=  7/360/ 9

120E CANVRL41010 2220            70 76  220/ 10/ 12 1021.1F

END


USA.gov is the U.S. government's official web portal to all federal, state and local government web resources and services.